BMCB-17 Weather Reports


Display with metric or nautical units.
time (UTC)temp
F
wind
direction
speed
MPH
gust
MPH
rain 1hr
in
rain 24hr
in
rain mn
in
humidity
%
barometer
mb
20260506184059 50 0 0.0 0.0 0.00 0.46 0.37 92 1010.0
20260506182102 50 0 0.0 0.0 0.00 0.47 0.37 91 1009.8
20260506181100 50 0 0.0 0.0 0.00 0.47 0.37 90 1009.6
20260506174100 51 0 0.0 0.0 0.00 0.50 0.37 89 1009.3
20260506173059 51 0 0.0 0.0 0.00 0.50 0.37 90 1009.2
20260506172101 51 0 0.0 0.0 0.00 0.50 0.37 93 1009.1
20260506171100 51 0 0.0 0.0 0.00 0.50 0.37 94 1009.0
20260506170058 51 0 0.0 0.0 0.00 0.50 0.37 95 1009.0
20260506165057 51 0 0.0 0.0 0.00 0.50 0.37 94 1008.9
20260506164059 51 0 0.0 0.0 0.00 0.50 0.37 95 1008.8
20260506163059 51 0 0.0 0.0 0.00 0.50 0.37 93 1008.9
20260506162101 51 0 0.0 0.0 0.00 0.50 0.37 92 1008.9
20260506160057 51 0 0.0 0.0 0.00 0.50 0.37 94 1008.9
20260506155059 51 0 0.0 0.0 0.00 0.50 0.37 94 1008.9
20260506154101 52 0 0.0 0.0 0.00 0.50 0.37 92 1008.9
20260506151101 51 0 0.0 0.0 0.00 0.50 0.37 92 1008.9
20260506150058 51 0 0.0 0.0 0.00 0.50 0.37 92 1008.9
20260506145059 51 0 0.0 0.0 0.00 0.50 0.37 91 1008.8
20260506143057 52 0 0.0 0.0 0.00 0.50 0.37 91 1008.7
20260506142058 51 0 0.0 0.0 0.00 0.50 0.37 94 1008.8
20260506141057 51 0 0.0 0.0 0.00 0.50 0.37 93 1008.9
20260506140106 51 0 0.0 0.0 0.00 0.50 0.37 93 1008.9
20260506135059 51 0 0.0 0.0 0.00 0.50 0.37 93 1008.9
20260506134059 51 0 0.0 0.0 0.00 0.50 0.37 93 1008.9
20260506133058 51 0 0.0 0.0 0.00 0.50 0.37 93 1008.9
20260506132058 51 0 0.0 0.0 0.00 0.50 0.37 93 1008.8
20260506131059 51 0 0.0 0.0 0.00 0.50 0.37 93 1008.7
20260506130058 52 0 0.0 0.0 0.00 0.50 0.37 93 1008.6
20260506125057 51 0 0.0 0.0 0.00 0.50 0.37 93 1008.6
20260506122057 51 0 0.0 0.0 0.00 0.50 0.37 94 1008.5
20260506121055 50 0 0.0 0.0 0.00 0.50 0.37 96 1008.4
20260506120056 51 0 0.0 0.0 0.00 0.50 0.37 96 1008.4
20260506115057 50 0 0.0 0.0 0.00 0.50 0.37 97 1008.4
20260506114058 50 0 0.0 0.0 0.00 0.50 0.37 99 1008.4
20260506113059 50 0 0.0 0.0 0.00 0.50 0.37 10 1008.4
20260506112059 49 0 0.0 0.0 0.00 0.50 0.37 10 1008.4
20260506111058 49 0 0.0 0.0 0.00 0.50 0.37 10 1008.4
20260506110058 48 0 0.0 0.0 0.01 0.50 0.37 10 1008.5
20260506105055 48 0 0.0 0.0 0.01 0.50 0.37 10 1008.6
20260506101057 47 0 0.0 0.0 0.03 0.50 0.37 10 1008.5
20260506100056 47 0 0.0 0.0 0.03 0.50 0.37 10 1008.3
20260506095057 47 0 0.0 0.0 0.03 0.50 0.36 10 1008.3
20260506094058 47 0 0.0 0.0 0.03 0.50 0.36 10 1008.2
20260506093057 47 0 0.0 0.0 0.02 0.49 0.35 10 1008.2
20260506092057 46 0 0.0 0.0 0.02 0.50 0.35 10 1008.1
20260506091056 46 0 0.0 0.0 0.02 0.49 0.35 10 1008.1
20260506090059 46 0 0.0 0.0 0.01 0.48 0.34 10 1008.0
20260506085057 46 0 0.0 0.0 0.02 0.48 0.34 10 1008.0
20260506084056 46 0 0.0 0.0 0.01 0.47 0.33 10 1007.9
20260506083055 46 0 0.0 0.0 0.01 0.47 0.33 10 1007.8
20260506082056 46 0 0.0 0.0 0.01 0.47 0.33 10 1007.7
20260506073056 45 0 0.0 0.0 0.02 0.46 0.32 10 1007.4
20260506072054 45 0 0.0 0.0 0.02 0.47 0.32 10 1007.3
20260506071056 45 0 0.0 0.0 0.03 0.47 0.32 10 1007.3
20260506062055 44 0 0.0 0.0 0.06 0.46 0.31 10 1007.2
20260506045053 45 0 0.0 0.0 0.05 0.38 0.23 10 1007.1
20260506044055 45 0 0.0 0.0 0.05 0.37 0.22 10 1007.1
20260506043057 45 0 0.0 0.0 0.04 0.36 0.21 10 1007.0
20260506042053 45 0 0.0 0.0 0.04 0.36 0.20 10 1007.0
20260506041055 45 0 0.0 0.0 0.03 0.35 0.20 10 1006.9
20260506040055 45 0 0.0 0.0 0.02 0.35 0.19 10 1006.9
20260506035057 45 0 0.0 0.0 0.02 0.34 0.18 10 1006.9
20260506034058 45 0 0.0 0.0 0.02 0.34 0.18 10 1006.9
20260506033054 45 0 0.0 0.0 0.02 0.33 0.17 10 1006.9
20260506032054 45 0 0.0 0.0 0.03 0.33 0.17 10 1007.0
20260506031055 45 0 0.0 0.0 0.03 0.32 0.17 10 1007.0
20260506030053 45 0 0.0 0.0 0.04 0.32 0.17 10 1007.1
20260506025056 45 0 0.0 0.0 0.04 0.32 0.17 10 1007.1
20260506023057 46 0 0.0 0.0 0.05 0.31 0.16 10 1007.1
20260506021056 46 0 0.0 0.0 0.04 0.30 0.14 10 1007.1
20260506020056 46 0 0.0 0.0 0.04 0.29 0.13 10 1007.1
20260506015057 46 0 0.0 0.0 0.04 0.28 0.13 10 1007.1
20260506014055 46 0 0.0 0.0 0.05 0.28 0.13 10 1007.1
20260506013055 46 0 0.0 0.0 0.05 0.28 0.12 10 1007.1
20260506011055 47 0 0.0 0.0 0.05 0.27 0.11 10 1007.1
20260506010051 47 0 0.0 0.0 0.05 0.26 0.10 10 1007.1
20260506004055 47 0 0.0 0.0 0.05 0.24 0.09 10 1007.2
20260506003053 47 0 0.0 0.0 0.04 0.24 0.08 10 1007.3
20260506002057 47 0 0.0 0.0 0.04 0.23 0.07 10 1007.3
20260506000058 47 0 0.0 0.0 0.04 0.22 0.06 10 1007.4
20260505235059 47 0 0.0 0.0 0.03 0.21 0.06 10 1007.5
20260505234059 47 0 0.0 0.0 0.02 0.20 0.05 10 1007.5
20260505233058 47 0 0.0 0.0 0.02 0.20 0.04 10 1007.6
20260505232059 47 0 0.0 0.0 0.03 0.20 0.04 10 1007.6
20260505231100 48 0 0.0 0.0 0.02 0.19 0.03 10 1007.7
20260505230059 48 0 0.0 0.0 0.03 0.19 0.03 10 1007.7
20260505224059 48 0 0.0 0.0 0.03 0.18 0.02 10 1007.7
20260505223058 48 0 0.0 0.0 0.03 0.18 0.02 10 1007.7
20260505222059 48 0 0.0 0.0 0.03 0.17 0.02 10 1007.7
20260505221101 48 0 0.0 0.0 0.03 0.17 0.01 10 1007.7
20260505220059 48 0 0.0 0.0 0.04 0.17 0.01 10 1007.8
20260505214105 48 0 0.0 0.0 0.05 0.16 0.16 10 1007.8
20260505213104 48 0 0.0 0.0 0.05 0.15 0.15 10 1007.9
20260505212103 48 0 0.0 0.0 0.05 0.15 0.15 10 1008.0
20260505211101 48 0 0.0 0.0 0.05 0.14 0.14 10 1008.0
20260505205101 49 0 0.0 0.0 0.04 0.13 0.13 10 1008.0
20260505203104 49 0 0.0 0.0 0.03 0.11 0.11 10 1008.0
20260505202102 49 0 0.0 0.0 0.02 0.10 0.10 10 1008.0
20260505200059 49 0 0.0 0.0 0.02 0.09 0.09 10 1007.9
20260505195100 49 0 0.0 0.0 0.02 0.09 0.09 10 1007.8
20260505194102 49 0 0.0 0.0 0.02 0.09 0.09 10 1007.8
20260505192102 49 0 0.0 0.0 0.02 0.08 0.08 10 1007.7
20260505191102 49 0 0.0 0.0 0.02 0.08 0.08 10 1007.6
20260505185100 49 0 0.0 0.0 0.03 0.07 0.07 10 1007.6